Location: Copper Mountain Observatory
(34.1350°N, 116.3120°W)
Time: 01:57:50
(UTC-07:00)

Daily predictions for brighter satellites

Satellite Brightness Start Highest point End
(mag) Time Altitude Azimuth Time Altitude Azimuth Time Altitude Azimuth
Cosmos 2082 Rocket 4.5 01:48:31 19° NE 01:48:31 19° NE 01:50:11 10° NE
Resurs 1-4 Rocket 4.4 02:02:45 10° NE 02:04:38 20° NE 02:04:38 20° NE
Cosmos 1833 Rocket 4.4 02:23:18 28° NNE 02:23:18 28° NNE 02:25:55 10° NNE
Lacrosse 5 rocket 4.3 02:47:04 13° N 02:47:04 13° N 02:47:43 10° NNE
ARIANE 5 R/B 3.7 02:50:34 10° NNE 02:54:03 39° NE 02:54:03 39° NE
USA 238 DEB 4.1 03:05:08 52° ESE 03:05:13 52° ESE 03:11:53 10° NE
USA 238 4.1 03:05:12 52° ESE 03:05:19 52° ESE 03:11:59 10° NE
CZ-2D R/B 3.2 03:06:38 10° N 03:10:00 37° NNW 03:10:00 37° NNW
SL-16 R/B 3.2 03:21:58 41° NW 03:21:58 41° NW 03:26:09 10° NNW
Cosmos 1980 Rocket 2.5 03:16:58 10° NNW 03:21:31 58° N 03:21:31 58° N
Cosmos 1697 Rocket 4.5 03:19:24 10° NNW 03:21:08 20° NW 03:21:08 20° NW
Cosmos 1428 Rocket 4.3 03:21:29 10° N 03:27:41 85° E 03:27:57 81° SE
Cosmos 841 Rocket 4.0 03:28:29 52° E 03:28:29 52° E 03:33:27 10° NNE
Cosmos 2082 Rocket 3.9 03:30:21 20° NW 03:30:21 20° NW 03:33:25 10° N
ADEOS II 3.0 03:27:11 10° NNE 03:32:10 42° E 03:33:18 37° SE
Cosmos 1375 Rocket 4.3 03:32:20 80° WSW 03:32:38 83° WNW 03:39:11 10° NNE
ADEOS 3.6 03:29:04 10° NNE 03:34:05 76° ENE 03:34:05 76° ENE
SL-16 R/B 3.9 03:30:37 10° N 03:35:39 32° ENE 03:40:39 10° SE
Cosmos 2058 Rocket 3.8 03:31:20 10° N 03:35:26 50° ENE 03:35:26 50° ENE
Cosmos 2228 3.8 03:34:57 10° N 03:38:16 47° NNE 03:38:16 47° NNE
ATLAS 5 CENTAUR R/B 4.4 03:38:29 32° SSW 03:40:28 33° S 03:47:36 10° ESE
Resurs 1-4 Rocket 3.6 03:42:46 10° NNW 03:45:43 23° NW 03:45:43 23° NW
Meteor 1-22 Rocket 4.1 03:44:01 10° N 03:49:56 80° W 03:50:47 65° SSW
Meteor 1-24 4.5 03:50:07 74° SSW 03:50:38 85° W 03:56:11 10° N
Cosmos 1842 4.3 03:52:07 41° N 03:52:07 41° N 03:54:47 10° N
Cosmos 2322 Rocket 3.4 03:45:53 10° N 03:51:11 40° ENE 03:56:25 10° SE
Cosmos 292 Rocket 3.9 03:52:10 65° SE 03:52:35 69° ESE 03:57:23 10° NNE
ATLAS 3B R/B 2.7 03:50:47 53° SW 03:52:44 86° WNW 03:59:46 10° NNE
SJ 16-02 4.2 03:51:01 10° NNE 03:54:00 18° ENE 03:56:59 10° ESE
Cosmos 1763 Rocket 3.6 03:54:44 57° WNW 03:54:44 57° WNW 03:59:49 10° N
NOSS 3-2 (A) 3.4 03:57:37 48° S 03:59:15 72° ESE 04:05:31 10° NE
Transit 2A Rocket 4.4 04:05:23 10° NNW 04:09:50 85° ENE 04:14:06 10° SSE
Cosmos 1805 3.8 04:06:45 10° NNW 04:09:41 48° NNW 04:09:41 48° NNW
Cosmos 1953 3.6 04:08:07 10° N 04:11:59 41° E 04:15:49 10° SSE
Cosmos 1898 Rocket 4.0 04:08:49 10° NNW 04:12:50 39° WNW 04:12:50 39° WNW
CENTAUR R/B 4.2 04:09:16 10° SSE 04:13:47 24° ESE 04:18:43 10° NE
SEDSat Delta rocket 3.9 04:14:00 41° WSW 04:16:18 70° S 04:23:04 10° ESE
Cosmos 44 3.7 04:11:06 10° NNW 04:16:24 75° ENE 04:21:48 10° SSE
USA 215 3.2 04:10:45 10° NE 04:17:17 81° NW 04:20:18 35° SW
Centaur D-1AR AC-36 4.2 04:21:11 10° S 04:21:11 10° S 04:21:35 10° SSE
PSLV R/B 3.5 04:21:51 56° ENE 04:21:51 56° ENE 04:24:17 10° ENE
Cosmos 1937 Rocket 3.6 04:18:53 10° NNW 04:23:52 49° WSW 04:25:29 36° SSW
Meteosat 1 Rocket2 4.4 04:25:11 35° SW 04:27:46 55° S 04:36:39 10° ESE
ERBS 2.7 04:28:35 46° SSE 04:29:09 53° SE 04:32:28 10° NE
ARIANE 5 R/B 4.3 04:31:25 10° NNW 04:34:17 15° WNW 04:34:24 15° WNW
Okean O Rocket 3.3 04:32:05 10° NE 04:36:00 32° E 04:39:53 10° SSE
Cosmos 1758 3.2 04:34:19 10° NNW 04:38:14 60° W 04:40:21 25° SSW
Cosmos 44 Rocket 3.4 04:40:35 10° NNW 04:45:45 88° WSW 04:50:56 10° SSE
Cosmos 1733 3.2 04:42:51 10° NNW 04:46:39 57° W 04:49:47 15° S
Cosmos 372 Rocket 4.3 04:45:05 10° NNW 04:50:17 69° ENE 04:55:24 10° SSE
Meteor 2-5 Rocket 4.2 04:46:19 10° S 04:51:43 59° E 04:57:11 10° NNE
Delta 2 Rocket 4.1 04:48:35 25° WSW 04:52:03 73° SSE 04:57:32 10° E
Cosmos 2266 Rocket 4.4 04:49:08 10° NNW 04:54:46 40° W 05:00:28 10° SSW
PSLV R/B 3.8 04:54:15 10° N 04:58:18 47° WNW 05:01:12 18° SW
Cosmos 1953 Rocket 4.2 04:56:08 10° S 05:00:32 58° E 05:04:55 10° NNE
Cosmos 2360 Rocket 2.5 04:58:30 10° NNW 05:04:08 72° ENE 05:09:44 10° SSE
S3M 4.3 05:00:18 10° S 05:06:23 71° E 05:12:28 10° N
Cosmos 2219 4.4 05:01:55 10° S 05:07:14 42° ESE 05:12:37 10° NE
CZ-4B R/B 3.1 05:04:39 10° N 05:08:40 49° WNW 05:12:21 11° SSW
Cosmos 1812 Rocket 3.9 05:04:41 10° NNW 05:08:58 46° W 05:13:11 10° SSW
USA 161 2.4 05:07:08 10° SSE 05:10:06 54° ENE 05:13:02 10° N
ADEOS II 3.5 05:07:46 10° NNW 05:11:31 20° WNW 05:14:15 14° WSW
Cosmos 1470 3.4 05:09:26 10° NNW 05:13:03 35° W 05:16:39 10° SSW
Cosmos 1758 Rocket 3.4 05:11:44 10° SSW 05:16:02 74° W 05:20:23 10° N
Cosmos 1238 Rocket 4.2 05:13:21 10° SSW 05:19:36 58° W 05:26:13 10° N
SL-16 R/B 2.9 05:14:46 10° NW 05:19:36 30° WSW 05:24:26 10° SSW
Meteor 1-24 Rocket 4.0 05:14:44 10° S 05:19:58 68° E 05:25:16 10° NNE
BREEZE-M DEB (TANK) 4.0 05:18:58 10° WNW 05:20:14 14° NNW 05:21:38 10° NNE
COSMOS 2428 4.2 05:18:20 10° N 05:23:42 41° ENE 05:29:01 10° SE
Cosmos 1707 4.1 05:23:33 11° SW 05:26:20 22° WNW 05:29:23 10° NNW
Cosmos 2219 Rocket 4.3 05:26:09 10° N 05:31:08 32° ENE 05:36:04 10° SE
SJ 16-02 2.0 05:28:41 10° NW 05:32:38 33° W 05:36:34 10° SSW
NOSS 3-2 (C) 4.3 05:28:12 10° WSW 05:33:27 33° NW 05:39:12 10° NNE
Centaur D AC-28 3.8 05:07:29 11° WSW 05:33:55 59° S 05:39:06 10° ESE
Cosmos 2322 Rocket 3.3 05:30:37 10° NW 05:34:53 22° W 05:39:06 10° SSW
Meteor 1-16 Rocket 4.2 05:31:26 10° NNW 05:36:56 59° W 05:42:15 10° S
ATLAS CENTAUR R/B 1.8 05:33:04 10° NNW 05:37:36 84° ENE 05:42:22 10° SSE
